Temperature
18 18 19 19 19 19 19 18 18 18 18 18 18 18 17 17 17 17 17 16 16 16 16 16 16 15 15 15 15 15 15 15 15 15 15 16 16 16 16 16 16 16 16
18 18 18 18 19 18 18 18 18 18 18 18 18 17 17 17 17 16 16 16 16 16 15 15 15 15 15 15 14 14 14 14 14 14 14 14 15 16 16 16 16 16 16
19 18 19 19 18 18 18 18 18 18 18 18 17 17 17 17 16 16 16 16 16 15 15 15 15 15 14 14 14 14 14 14 14 13 13 13 14 14 15 15 15 15 15
19 19 19 18 18 18 18 18 18 18 18 17 17 17 17 17 16 16 16 15 15 15 15 15 14 14 14 14 13 13 13 13 13 13 13 13 13 13 14 14 15 15 15
19 19 19 19 19 19 18 18 18 18 17 17 17 17 16 16 16 15 15 15 15 15 14 14 14 14 13 13 13 13 13 13 12 12 13 13 13 13 13 13 14 14 14
20 20 19 19 19 19 18 18 18 18 17 17 17 16 16 16 15 15 15 15 14 14 14 14 13 13 13 13 12 12 12 12 12 12 12 12 12 12 12 12 13 13 14
20 20 19 19 19 19 19 18 18 17 17 17 16 16 16 15 15 15 14 14 14 14 13 13 13 13 12 12 12 12 12 11 11 11 11 11 11 12 12 12 12 12 13
20 20 20 20 20 19 19 18 18 17 17 16 16 16 15 15 15 14 14 14 13 13 13 13 12 12 12 12 12 11 11 11 11 11 11 11 11 11 11 11 11 11 12
21 21 20 20 20 19 19 19 18 18 17 16 16 15 15 15 14 14 14 13 13 13 12 12 12 12 12 11 11 11 11 11 11 11 11 11 11 11 11 11 11 11 11
21 21 21 20 20 20 19 19 18 18 17 16 16 16 15 15 14 14 14 13 13 12 12 12 12 12 11 11 11 11 11 11 11 11 11 11 11 11 11 11 11 11 11
21 21 21 21 20 20 19 19 18 18 17 17 16 16 15 15 14 14 13 13 13 12 12 12 12 11 11 11 11 11 11 10 10 10 10 10 10 10 10 10 10 10 10
22 22 21 20 20 20 19 19 18 18 17 17 16 16 15 15 14 14 13 13 13 12 12 12 11 11 11 11 11 11 10 10 10 10 10 10 10 10 10 10 10 10 10
22 21 21 21 20 20 19 19 18 18 18 17 16 16 15 15 14 14 13 13 13 12 12 12 11 11 11 11 11 10 10 10 10 10 10 10 10 10 10 10 10 10 10
22 21 21 21 20 20 20 19 19 18 18 17 16 16 15 15 14 14 13 13 12 12 12 12 11 11 11 11 11 10 10 10 10 10 10 10 10 10 10 9 9 9 9
22 22 21 21 21 20 20 19 19 18 18 17 17 16 15 15 14 14 13 13 12 12 12 12 11 11 11 11 10 10 10 10 10 10 10 10 10 9 9 9 9 9 9
22 22 22 21 21 20 20 19 19 18 18 17 17 16 15 15 14 14 14 13 13 12 12 12 11 11 11 11 10 10 10 10 10 10 10 10 10 9 9 9 9 9 9
22 22 22 22 21 21 20 20 19 19 18 17 17 16 16 15 15 14 14 13 13 12 12 12 12 11 11 11 10 10 10 10 10 9 9 9 9 9 9 9 9 8 8
23 23 22 22 22 21 20 20 19 18 18 17 17 16 16 15 15 14 14 13 13 13 12 12 12 11 11 11 10 10 10 10 10 9 9 9 9 9 9 8 8 9 9
24 23 23 22 22 21 20 20 19 18 18 17 17 16 16 15 15 14 14 14 13 13 12 12 12 12 11 11 11 10 10 10 10 9 9 9 9 9 8 8 8 8 9
24 23 23 22 21 21 20 20 19 18 18 17 17 16 16 15 15 15 14 14 13 13 12 12 12 12 11 11 11 10 10 10 10 10 9 9 9 9 8 8 8 8 8
24 23 23 22 21 21 20 19 19 19 18 17 17 16 16 15 15 14 14 13 13 13 12 12 12 12 11 11 11 10 10 10 10 10 9 9 9 8 8 8 8 8 8
23 23 22 22 21 20 20 19 19 19 18 17 16 16 16 15 15 14 14 13 13 13 12 12 12 12 11 11 11 11 10 10 10 10 9 9 9 8 8 8 8 8 8
23 22 22 21 21 20 20 19 19 18 18 17 16 16 16 15 15 14 14 13 13 13 12 12 12 12 12 11 11 11 10 10 10 9 9 9 9 8 8 8 8 8 8
22 22 21 21 20 20 19 19 18 18 17 17 16 16 15 15 15 14 14 13 13 13 12 12 12 12 12 11 11 11 10 10 10 9 9 9 9 9 9 8 8 8 8
21 20 20 20 19 19 18 18 17 17 17 16 16 15 15 15 14 14 14 13 13 13 12 12 12 12 12 12 11 11 10 10 10 9 9 9 9 9 9 8 8 8 8
19 19 19 18 18 18 17 17 17 16 16 16 15 15 14 14 14 13 13 13 13 13 12 12 12 12 12 11 11 11 10 10 10 9 9 9 9 9 9 8 8 8 8
Wind_Speed
5 5 7 8 8 7 7 6 7 6 5 4 4 3 2 2 2 2 4 5 6 6 6 3 3 3 3 2 1 1 2 2 2 3 4 5 4 3 3 2 2 4 8
7 7 7 7 8 7 6 6 6 6 5 3 3 3 3 2 2 2 3 4 5 5 4 4 3 3 3 3 3 2 1 2 2 1 2 4 5 4 3 2 1 3 3
10 9 8 7 8 8 7 7 6 6 5 4 3 4 4 4 3 2 1 1 2 3 4 4 4 3 3 2 1 2 2 1 2 1 2 1 2 4 4 3 3 4 3
10 9 10 9 9 8 7 7 7 6 5 5 5 5 4 3 1 1 0 1 2 1 2 4 4 3 3 2 1 2 1 2 1 2 0 2 3 2 4 4 4 5 4
12 11 11 10 9 9 9 8 7 6 5 6 6 7 5 3 2 2 3 3 3 3 3 4 4 3 2 2 1 1 0 1 2 1 1 1 1 2 2 4 5 5 4
11 11 10 10 9 9 9 8 8 6 6 7 7 7 7 5 4 4 3 2 2 3 3 5 4 3 1 1 0 0 1 1 1 2 2 2 1 2 2 3 4 5 5
12 12 11 11 10 10 10 9 9 7 6 7 7 7 7 6 6 4 3 2 1 1 2 2 2 1 0 1 0 0 1 2 2 3 3 3 3 3 3 3 4 4 4
13 14 14 13 12 12 11 10 9 8 7 7 6 6 6 5 4 4 4 3 2 2 1 2 1 0 1 1 0 1 2 2 2 4 3 3 4 3 3 3 3 4 4
15 15 14 13 13 13 12 12 11 9 8 8 7 6 6 6 5 5 4 3 3 3 3 1 0 1 2 2 1 2 3 3 3 4 4 3 4 3 4 3 4 3 4
15 14 13 13 12 12 11 11 11 10 9 8 7 6 7 7 6 4 4 4 3 2 2 1 2 2 3 3 2 3 4 3 4 4 4 4 4 4 4 3 3 4 4
16 14 13 12 12 12 12 11 10 9 8 8 7 7 6 6 6 5 5 4 3 3 3 3 3 4 4 4 3 4 4 4 5 4 4 5 5 4 4 3 3 3 3
15 15 14 13 12 12 12 11 10 10 9 8 7 7 6 6 5 5 5 4 4 4 4 4 4 4 4 4 4 5 5 5 6 6 5 6 5 5 5 4 5 4 5
14 13 13 13 13 12 12 11 10 10 9 8 8 7 6 6 6 6 5 5 5 4 4 4 5 5 6 6 6 6 6 6 6 6 6 6 5 6 5 6 6 5 6
16 14 13 13 13 12 12 11 10 10 9 9 8 8 7 7 7 6 6 6 5 5 5 5 6 6 6 6 6 5 5 5 5 6 6 6 7 7 7 6 7 6 6
16 16 15 13 12 11 11 11 10 10 9 9 8 8 8 7 7 6 6 6 5 5 5 5 5 5 5 5 5 5 5 6 6 6 7 7 9 11 9 7 7 6 5
17 16 15 14 14 14 12 11 10 10 9 9 9 8 7 7 7 7 6 5 5 5 4 5 5 5 5 7 8 7 6 6 6 7 7 8 10 11 11 12 11 9 8
16 16 16 16 15 14 13 12 11 9 9 9 8 8 8 8 7 7 6 5 5 5 5 5 6 7 8 11 11 11 7 7 7 7 7 8 9 9 7 9 11 10 11
16 15 14 13 11 11 11 11 10 10 9 8 8 7 8 8 7 6 6 6 5 5 5 6 7 7 9 12 12 12 8 7 8 8 8 8 9 10 9 8 8 8 9
14 14 14 12 11 11 11 11 10 9 9 8 8 8 8 8 7 7 6 6 5 5 6 6 7 7 9 12 12 11 5 6 8 8 8 8 8 12 12 8 8 9 9
10 11 10 9 11 10 11 11 10 9 9 9 8 8 8 8 8 8 7 6 5 6 6 7 7 8 9 12 13 11 5 7 7 7 7 10 10 11 10 6 7 9 9
9 10 11 11 11 11 11 11 10 10 10 8 7 7 7 7 7 6 5 6 6 6 6 7 8 8 10 11 13 11 6 7 7 6 6 7 11 12 11 9 8 12 11
8 10 11 10 9 10 11 10 10 9 7 7 7 7 7 6 5 6 6 6 6 6 7 7 7 7 7 9 10 11 11 10 7 7 7 8 12 12 13 10 11 15 11
8 9 10 9 7 8 10 11 9 6 6 6 7 6 6 6 5 6 6 6 5 6 6 6 7 7 6 7 11 11 11 11 8 7 10 12 13 13 11 14 16 12 7
6 6 8 8 7 6 7 7 6 6 6 6 6 5 5 6 6 5 6 6 6 6 7 7 7 7 6 6 6 5 6 7 7 7 8 11 12 11 12 12 10 8 7
4 5 6 6 6 5 5 4 4 6 5 5 5 5 5 6 6 6 7 8 8 9 9 8 8 8 8 10 12 8 6 6 6 4 4 4 5 6 6 7 7 7 6
5 5 4 4 3 4 3 2 3 4 4 4 4 4 4 5 5 6 7 10 12 15 16 17 13 10 13 14 13 13 13 11 7 4 5 6 7 8 8 8 8 7 7
Wind_Direction
171 159 149 145 134 127 131 137 134 133 125 114 110 110 112 110 112 132 138 136 129 122 116 109 99 93 86 72 47 42 8 344 3 15 335 320 308 295 274 265 263 255 249
171 164 159 147 143 148 145 140 138 137 135 131 129 132 125 106 104 86 88 103 114 125 129 128 126 109 89 55 41 54 36 343 24 70 9 340 336 334 327 322 305 294 276
173 167 163 159 153 154 156 152 148 141 138 127 103 85 70 65 55 47 40 40 119 140 146 150 138 126 115 100 61 81 106 348 330 99 141 105 291 312 322 333 342 329 305
173 168 169 165 163 164 159 147 148 142 137 123 114 115 115 116 143 167 63 358 24 93 135 140 133 125 120 111 80 103 121 126 312 325 275 192 196 236 310 320 328 328 316
175 173 176 173 167 161 154 153 149 145 142 130 126 119 115 126 117 80 62 39 25 46 85 110 117 117 117 117 94 64 57 165 196 239 280 307 281 187 201 292 318 326 313
176 175 175 166 163 162 156 151 148 148 142 132 128 129 129 123 104 83 75 48 27 26 59 92 99 111 121 153 219 262 281 254 237 232 226 217 237 253 224 257 291 300 298
175 175 173 171 171 169 163 158 152 150 146 137 139 141 138 132 133 132 119 101 65 46 50 80 95 103 211 232 206 279 292 281 272 260 247 231 224 217 209 228 268 283 291
179 180 179 177 176 173 168 161 158 157 155 150 153 151 143 140 146 152 148 148 160 170 155 117 111 78 302 297 261 273 276 271 276 278 269 255 252 231 216 215 237 290 298
184 184 182 178 174 172 172 167 162 161 164 163 159 156 156 156 164 168 160 166 182 181 165 158 206 292 288 278 269 262 272 279 273 275 276 266 263 255 241 224 205 215 272
187 184 180 175 172 170 168 164 164 168 172 170 166 164 168 171 173 169 169 177 188 185 188 226 254 270 275 272 261 262 265 269 275 267 272 274 268 270 263 249 235 210 219
187 182 176 170 165 162 163 166 170 169 171 172 168 163 172 172 165 164 177 184 196 203 213 233 244 254 261 264 257 259 263 264 274 278 272 273 271 270 272 267 257 244 221
178 172 167 163 163 165 168 171 174 174 176 174 170 172 173 168 167 179 191 192 201 214 221 229 239 250 253 250 245 257 262 256 262 269 271 274 278 275 272 266 261 256 241
165 163 163 167 171 172 172 174 174 175 173 168 167 170 174 176 185 195 200 202 208 222 232 231 239 248 252 251 249 246 252 252 254 257 258 264 269 272 271 267 262 260 266
166 166 170 173 174 173 173 174 175 172 168 166 167 175 185 190 196 201 206 212 214 222 236 239 239 242 247 250 253 248 244 249 255 255 255 259 257 258 261 266 260 257 261
169 172 174 176 174 174 175 173 173 173 169 167 175 189 194 195 196 201 212 219 222 228 231 238 247 251 250 245 236 235 240 245 257 264 264 265 268 266 262 264 255 251 249
177 178 178 176 178 178 178 174 174 175 170 174 188 194 191 194 201 209 216 217 224 232 233 239 245 253 252 246 234 233 241 246 251 262 269 274 274 275 274 275 270 253 242
179 180 182 182 182 181 176 176 178 174 174 184 193 195 194 199 207 208 202 212 223 226 234 242 245 251 256 257 254 248 234 239 246 253 264 277 280 282 275 277 281 277 263
181 185 183 182 181 176 172 169 167 171 179 189 199 199 195 199 202 200 211 221 220 225 235 243 247 251 258 257 255 253 239 239 248 250 253 260 273 277 268 268 272 268 267
184 186 183 177 171 171 169 162 168 175 182 194 201 200 193 195 199 208 221 223 221 234 239 245 249 252 262 261 258 249 231 241 253 256 257 256 265 273 274 265 265 271 274
181 178 170 162 166 173 163 162 174 180 194 200 200 195 189 192 202 214 221 220 221 236 246 253 252 249 257 262 260 245 220 240 255 262 261 261 261 269 274 256 253 264 269
175 167 161 167 178 171 163 171 180 195 203 195 190 189 192 198 207 217 222 225 230 241 250 258 263 259 257 264 264 251 216 227 244 255 261 260 263 266 268 259 245 252 258
165 162 164 175 174 167 167 177 195 203 188 180 184 193 201 209 210 214 230 229 228 242 254 260 269 267 262 257 259 253 236 223 225 243 252 258 265 267 269 266 257 259 262
166 165 168 171 172 173 174 187 202 182 170 176 193 204 210 219 220 219 230 237 234 237 249 249 257 265 262 259 257 252 244 233 226 244 253 262 270 275 273 265 263 263 251
161 159 157 163 174 180 185 192 183 169 168 189 206 212 219 236 242 238 232 235 240 241 244 244 249 256 260 256 249 243 245 245 246 256 268 274 274 270 263 267 268 252 237
109 130 150 165 175 177 188 189 174 166 178 199 213 221 228 241 253 252 242 237 236 234 233 240 237 240 255 253 233 219 226 226 231 247 272 274 278 277 273 269 263 255 245
90 98 108 130 155 158 172 178 169 168 180 211 229 234 241 248 252 263 276 259 250 256 249 246 243 241 243 254 252 237 236 236 221 210 251 265 266 267 269 270 269 260 252
Height
1530 1530 1532 1534 1536 1538 1540 1542 1543 1544 1546 1547 1548 1549 1550 1551 1552 1552 1553 1552 1552 1553 1553 1553 1553 1553 1553 1552 1552 1551 1551 1551 1550 1549 1548 1548 1548 1547 1547 1548 1548 1549 1550
1530 1531 1532 1534 1536 1538 1540 1541 1543 1544 1546 1547 1548 1549 1550 1551 1551 1552 1552 1552 1551 1552 1552 1552 1551 1551 1551 1550 1550 1549 1549 1549 1548 1548 1547 1546 1546 1545 1545 1545 1545 1546 1546
1528 1530 1532 1534 1536 1538 1539 1541 1542 1544 1545 1547 1548 1549 1549 1550 1551 1551 1551 1551 1551 1550 1550 1550 1550 1549 1549 1548 1548 1547 1547 1547 1547 1547 1546 1545 1543 1543 1543 1542 1543 1543 1543
1528 1530 1532 1534 1535 1537 1539 1541 1542 1544 1545 1546 1547 1548 1548 1549 1550 1550 1550 1549 1549 1549 1548 1548 1548 1547 1547 1546 1546 1545 1544 1544 1544 1544 1544 1544 1543 1543 1541 1540 1541 1541 1540
1527 1529 1531 1533 1535 1537 1539 1540 1542 1543 1544 1545 1546 1547 1547 1548 1548 1548 1548 1547 1547 1547 1546 1546 1546 1545 1545 1544 1543 1542 1542 1541 1541 1541 1541 1541 1541 1540 1540 1537 1537 1537 1538
1526 1529 1531 1533 1535 1537 1538 1540 1541 1542 1543 1544 1545 1545 1546 1546 1546 1546 1546 1545 1545 1545 1544 1544 1543 1543 1542 1541 1540 1539 1539 1538 1538 1538 1537 1537 1537 1537 1537 1535 1534 1533 1533
1525 1527 1530 1532 1533 1535 1537 1538 1540 1541 1542 1543 1544 1544 1544 1544 1544 1544 1544 1543 1543 1542 1542 1542 1541 1540 1539 1538 1537 1536 1536 1535 1535 1534 1534 1534 1534 1534 1534 1533 1531 1530 1529
1522 1525 1527 1529 1531 1533 1535 1537 1538 1540 1541 1542 1542 1542 1542 1542 1542 1542 1542 1541 1541 1540 1540 1539 1538 1538 1537 1535 1534 1533 1533 1532 1531 1531 1531 1531 1530 1530 1530 1530 1529 1526 1525
1519 1522 1525 1527 1529 1531 1533 1535 1537 1538 1539 1540 1540 1540 1540 1540 1540 1540 1539 1539 1538 1538 1537 1536 1535 1534 1533 1532 1531 1530 1530 1529 1528 1528 1527 1527 1527 1526 1526 1526 1525 1525 1522
1516 1519 1522 1524 1527 1529 1531 1533 1535 1536 1537 1538 1538 1538 1538 1538 1538 1538 1537 1537 1536 1535 1534 1533 1532 1531 1530 1529 1528 1527 1527 1526 1525 1524 1524 1523 1523 1522 1522 1521 1521 1520 1519
1512 1515 1518 1522 1524 1527 1529 1531 1533 1534 1535 1535 1536 1536 1536 1536 1535 1535 1535 1534 1533 1533 1532 1531 1529 1528 1527 1526 1525 1524 1524 1523 1522 1521 1520 1519 1519 1518 1517 1517 1516 1515 1514
1508 1511 1515 1519 1522 1524 1526 1528 1530 1531 1532 1533 1533 1534 1533 1533 1533 1533 1532 1531 1531 1530 1529 1528 1527 1526 1525 1523 1522 1521 1520 1519 1519 1518 1517 1516 1515 1513 1512 1512 1511 1510 1509
1505 1509 1513 1516 1518 1521 1523 1525 1527 1528 1529 1530 1531 1531 1531 1531 1530 1530 1529 1528 1528 1527 1526 1525 1524 1523 1521 1520 1519 1518 1517 1516 1515 1514 1513 1511 1510 1509 1508 1506 1505 1505 1504
1501 1505 1509 1512 1515 1518 1520 1522 1523 1525 1526 1527 1528 1528 1528 1528 1527 1527 1526 1526 1525 1524 1523 1522 1520 1519 1518 1517 1516 1514 1513 1512 1511 1510 1509 1507 1505 1504 1502 1501 1500 1499 1498
1498 1502 1505 1508 1511 1514 1516 1518 1520 1522 1523 1524 1524 1524 1524 1524 1524 1524 1523 1522 1521 1520 1519 1518 1517 1515 1514 1513 1512 1511 1509 1508 1507 1505 1504 1502 1500 1498 1497 1496 1495 1494 1493
1494 1498 1501 1504 1507 1510 1512 1514 1516 1518 1519 1520 1521 1521 1521 1521 1521 1521 1520 1519 1518 1517 1516 1514 1513 1511 1510 1509 1507 1506 1505 1503 1502 1500 1499 1497 1495 1493 1492 1491 1490 1489 1488
1490 1494 1497 1500 1503 1505 1508 1510 1513 1515 1516 1517 1517 1517 1518 1518 1518 1517 1516 1515 1514 1513 1512 1510 1509 1507 1506 1504 1503 1502 1500 1499 1497 1495 1493 1492 1490 1488 1486 1485 1484 1483 1483
1486 1489 1493 1496 1499 1502 1505 1507 1509 1511 1512 1513 1514 1514 1514 1514 1514 1513 1512 1511 1510 1509 1508 1506 1504 1503 1501 1500 1499 1497 1496 1494 1492 1491 1489 1487 1485 1483 1482 1480 1478 1477 1476
1482 1485 1488 1491 1495 1498 1501 1504 1505 1507 1508 1509 1509 1510 1510 1510 1510 1509 1509 1508 1506 1505 1503 1502 1500 1498 1497 1496 1494 1493 1491 1489 1487 1486 1484 1482 1480 1478 1477 1475 1473 1471 1470
1481 1483 1486 1489 1492 1495 1498 1500 1501 1503 1503 1505 1505 1506 1506 1506 1506 1505 1504 1503 1502 1501 1499 1497 1496 1494 1492 1491 1490 1488 1486 1484 1483 1481 1479 1477 1475 1473 1471 1469 1467 1465 1464
1479 1481 1483 1486 1488 1491 1494 1495 1497 1498 1500 1501 1502 1502 1502 1502 1501 1501 1500 1499 1498 1496 1495 1493 1491 1490 1488 1486 1485 1483 1481 1479 1477 1475 1474 1472 1470 1468 1465 1463 1461 1459 1458
1476 1478 1480 1483 1485 1488 1490 1491 1493 1495 1496 1497 1497 1498 1498 1498 1497 1496 1495 1494 1493 1491 1490 1488 1486 1485 1483 1482 1480 1478 1476 1474 1472 1470 1468 1466 1464 1462 1460 1457 1455 1454 1452
1473 1475 1477 1480 1482 1484 1486 1488 1490 1492 1492 1493 1493 1494 1494 1493 1493 1492 1490 1489 1488 1487 1485 1483 1481 1479 1478 1476 1475 1473 1471 1469 1467 1464 1462 1460 1458 1456 1453 1451 1449 1447 1445
1471 1473 1475 1477 1479 1481 1484 1486 1487 1488 1489 1489 1489 1489 1489 1489 1488 1487 1486 1484 1483 1481 1480 1478 1476 1474 1472 1471 1469 1467 1465 1463 1461 1459 1456 1454 1452 1449 1447 1444 1442 1440 1439
1470 1472 1473 1475 1477 1480 1482 1483 1484 1485 1485 1485 1485 1485 1484 1484 1483 1482 1480 1479 1478 1477 1475 1472 1471 1468 1466 1465 1464 1461 1459 1457 1455 1453 1450 1448 1446 1443 1440 1438 1436 1434 1432
1470 1471 1473 1475 1477 1478 1479 1480 1481 1481 1481 1481 1481 1480 1479 1478 1477 1476 1474 1473 1472 1470 1469 1467 1465 1462 1461 1459 1457 1455 1453 1451 1449 1447 1444 1442 1439 1436 1434 1431 1429 1427 1425